SCP
0 0 0 0 0 0 0 0 0 0 0 0 0 0 0 0 0 0 0 0 0 0 0 0 0 -0 0 0 0 -0 -0 -0 -0 -0 0 0 0 0 0 0 0 0 -0 0 0 0 -0 -0 -0
0 0 0 0 0 0 0 0 0 0 0 0 0 0 0 0 0 0 0 0 0 0 0 0 0 0 0 0 0 0 0 -0 -0 -0 0 0 0 0 0 0 0 0 0 0 0 0 -0 -0 -0
0 0 0 0 0 0 0 0 0 0 0 0 0 0 0 0 0 0 0 0 0 0 0 0 0 0 0 0 0 0 0 0 0 -0 0 0 0 0 0 0 0 0 0 0 0 0 -0 -0 -0
0 0 0 0 0 0 0 0 0 0 0 0 0 0 0 0 0 0 0 0 0 0 0 0 0 0 0 0 0 0 0 0 0 0 0 0 0 0 0 0 0 0 0 0 0 0 -0 -0 -0
0 0 0 0 0 0 0 0 0 0 0 0 0 0 0 0 0 0 0 0 0 1 0 0 0 0 0 0 0 0 0 0 0 0 0 0 0 0 0 0 0 0 0 0 0 0 0 -0 -0
0 0 0 0 0 0 0 0 0 0 0 0 0 0 0 0 0 0 0 0 0 1 0 0 0 0 0 0 0 0 0 0 0 0 0 0 0 0 0 0 0 0 0 0 0 0 0 0 -0
0 0 0 0 0 0 0 0 0 0 0 0 0 0 0 0 0 0 0 0 0 0 1 0 0 0 0 0 0 0 1 0 0 0 0 0 0 0 0 0 0 0 0 0 0 0 0 0 -0
0 0 0 0 0 0 0 0 0 0 0 0 0 0 0 0 0 0 0 0 0 0 0 0 1 0 0 1 1 1 1 0 0 0 0 0 0 0 0 0 0 0 0 0 0 0 0 0 -0
0 0 0 0 0 0 0 0 0 0 0 0 0 0 0 0 0 0 0 0 0 0 0 0 0 0 0 0 1 1 1 0 0 0 0 0 0 0 0 0 0 0 0 0 0 0 0 0 0
0 0 0 0 0 0 0 0 0 0 0 0 0 0 0 0 0 0 0 0 0 0 0 0 0 0 0 0 0 0 0 0 0 0 0 0 0 0 0 0 0 0 0 0 0 0 0 0 0
0 0 0 0 0 0 0 0 0 0 0 0 0 0 0 0 0 0 0 0 0 0 0 0 0 0 0 0 0 0 0 0 0 0 0 0 0 0 0 0 0 0 0 0 0 0 0 0 0
0 0 0 0 0 0 0 0 0 0 0 0 0 0 0 0 0 0 0 0 0 0 0 0 0 0 0 0 0 0 0 0 0 0 0 0 0 0 0 0 0 0 0 0 0 0 0 0 0
0 0 0 0 0 0 0 0 0 0 0 0 0 0 0 0 0 0 0 0 0 0 0 0 0 0 0 0 0 0 0 0 0 0 0 0 0 0 0 0 0 0 0 0 0 0 0 0 0
0 0 0 0 0 0 0 0 0 0 0 0 0 0 0 0 0 0 0 0 0 0 0 0 0 0 0 0 0 0 0 0 0 0 0 0 0 0 0 0 0 0 0 0 0 0 0 0 0
0 0 0 0 0 0 0 0 0 0 0 0 0 0 0 0 0 0 0 0 0 0 0 0 0 0 0 0 0 0 0 0 0 0 0 0 0 0 0 0 0 0 0 0 0 0 0 0 0
0 0 0 0 0 0 0 0 0 0 0 0 0 0 0 0 0 0 0 0 0 0 0 0 0 0 0 0 0 0 0 0 0 0 0 0 0 0 0 0 0 0 0 0 0 0 0 0 0
0 0 0 0 0 0 0 0 0 0 0 0 0 0 0 0 0 0 0 0 0 0 0 0 0 0 0 0 0 0 0 0 0 0 0 0 0 0 0 0 0 0 0 0 0 0 0 0 0
0 0 0 0 0 0 0 0 0 0 0 0 0 0 0 0 0 0 0 0 0 0 0 0 0 0 0 0 0 0 0 0 0 0 0 0 0 0 0 0 0 0 0 0 0 0 0 0 0
0 0 0 0 0 0 0 0 0 0 0 0 0 0 0 0 0 0 0 0 0 0 0 0 0 0 0 0 0 0 0 0 0 0 0 0 0 0 0 0 0 0 0 0 0 0 0 0 0
0 0 0 0 0 0 0 -0 0 0 0 0 0 0 0 0 0 0 0 0 0 0 0 0 0 0 0 0 0 0 0 0 0 0 0 0 0 0 0 0 0 0 0 0 0 0 0 0 0
0 0 0 0 0 0 0 -0 0 0 0 0 0 0 0 0 0 0 0 0 0 0 0 0 0 0 0 0 0 0 0 0 0 0 0 0 0 0 0 0 0 0 0 0 0 0 0 0 0
0 0 0 0 0 0 0 0 0 0 0 0 0 0 0 0 0 0 0 0 0 0 0 0 0 0 0 0 0 0 0 0 0 0 0 0 0 0 0 0 0 0 0 0 0 0 0 0 0
0 0 0 0 0 0 0 0 0 0 0 0 0 0 0 0 0 0 0 0 0 0 0 0 0 0 0 0 0 0 0 0 0 0 0 0 0 0 0 0 0 0 0 0 0 0 0 0 0
0 0 0 0 0 0 0 0 0 0 0 0 0 0 0 0 0 0 0 0 0 0 0 0 0 0 0 0 0 0 0 0 0 0 0 0 0 0 0 0 0 0 0 0 0 0 0 0 0
0 0 0 0 0 0 0 0 0 0 0 0 0 0 0 0 0 0 0 0 0 0 0 0 0 0 0 0 0 0 0 0 0 0 0 0 0 0 0 0 0 0 0 0 0 0 0 0 0
0 0 0 0 0 0 0 0 0 0 0 0 0 0 0 0 0 0 0 0 0 0 0 0 0 0 0 0 0 0 0 0 0 0 0 0 0 0 0 0 0 0 0 0 0 0 0 0 0
0 0 0 0 0 0 0 0 0 0 0 0 0 0 0 0 0 0 0 0 0 0 0 0 0 0 0 0 0 0 0 0 0 0 0 0 0 0 0 0 0 0 0 0 0 0 0 0 0
0 0 0 0 0 0 0 0 0 0 0 0 0 0 0 0 0 0 0 0 0 0 0 0 0 0 0 0 0 0 0 0 0 0 0 0 0 0 0 0 0 0 0 0 0 0 0 0 0
0 0 0 0 0 0 0 0 0 0 0 0 0 0 0 0 0 0 0 0 0 0 0 0 0 0 0 0 0 0 0 0 0 0 0 0 0 0 0 0 0 0 0 0 0 0 0 0 0
0 0 0 0 0 0 0 0 0 0 0 0 0 0 0 0 0 0 0 0 0 0 0 0 0 0 0 0 0 0 0 0 0 0 0 0 0 0 0 0 0 0 0 0 0 0 0 0 0
Wind_Speed_500mb
15 20 23 14 8 9 6 12 5 5 4 4 3 2 3 4 3 6 11 3 8 8 18 37 42 40 42 40 41 42 39 38 38 38 34 29 29 28 27 27 23 18 15 17 19 21 23 24 26
19 23 21 7 9 5 10 8 9 9 8 7 5 3 6 0 3 11 7 2 7 8 10 29 44 43 37 41 42 42 40 37 35 31 28 31 29 27 25 26 22 17 17 19 21 23 23 26 29
22 27 8 8 7 10 10 8 12 6 6 6 5 3 4 3 7 5 5 6 12 15 9 25 42 48 42 37 40 39 39 37 32 31 30 31 28 27 25 27 22 18 19 21 23 25 28 32 32
15 10 7 7 11 11 10 8 9 10 4 7 8 1 8 7 7 9 6 7 13 16 11 20 40 48 46 44 40 39 37 37 38 36 32 31 30 27 28 26 22 21 20 21 24 29 34 36 32
18 6 6 1 9 10 10 9 18 11 8 11 10 5 11 9 13 10 7 7 11 13 13 20 35 45 49 47 43 41 39 39 40 35 33 32 30 29 27 24 22 22 23 25 28 34 41 39 32
7 5 5 7 9 10 10 16 20 12 10 7 5 7 8 23 15 14 14 11 16 13 14 22 31 41 47 45 47 44 44 45 44 38 30 28 28 28 26 25 24 24 25 26 33 40 45 39 34
11 8 8 6 7 9 9 15 15 17 13 12 10 8 8 23 21 15 13 13 23 25 22 22 30 42 48 46 46 49 50 49 48 38 31 27 28 27 26 26 26 25 26 30 38 44 46 40 35
9 7 7 10 8 11 5 9 8 15 13 7 15 10 9 28 29 16 9 6 10 20 28 30 32 39 52 51 51 49 55 54 51 43 35 28 28 27 26 28 27 27 28 34 42 48 48 44 38
10 6 7 10 15 9 9 6 8 8 8 21 18 20 10 13 25 24 25 25 23 20 26 38 41 45 53 57 58 55 56 60 55 48 42 35 30 30 29 32 30 29 31 39 47 52 49 46 42
9 8 19 13 10 9 9 6 8 6 12 16 33 36 30 29 34 41 40 38 35 33 31 32 45 51 55 60 61 60 59 62 58 56 50 40 34 33 34 34 34 33 36 46 54 51 49 47 44
16 14 11 11 22 9 7 6 13 14 15 40 46 52 42 43 51 56 55 50 45 39 37 36 41 51 58 61 66 65 67 67 64 63 53 44 39 39 40 41 40 39 45 55 58 55 50 46 41
8 25 14 8 13 8 8 6 11 31 49 31 41 43 50 49 51 52 53 51 50 48 44 39 42 50 58 61 69 73 77 74 76 73 61 53 48 46 46 45 43 42 51 61 62 58 51 43 43
9 6 17 45 41 40 35 29 24 28 73 57 62 58 61 61 57 51 53 56 48 49 49 49 48 48 52 63 65 70 74 84 83 78 70 61 56 52 51 49 45 46 54 61 65 60 54 49 47
7 12 19 24 34 24 14 19 15 39 61 44 50 53 49 48 47 42 47 60 67 63 58 54 51 51 52 52 59 59 72 63 80 86 75 69 63 57 57 53 48 51 57 66 64 59 57 52 46
6 11 13 17 19 16 19 14 20 75 50 48 50 46 41 43 42 46 42 49 53 62 67 66 57 57 58 56 53 60 63 48 67 77 81 73 68 61 61 57 53 56 64 70 65 57 50 55 49
3 2 6 7 10 14 23 16 14 28 28 34 35 37 43 47 46 44 50 48 50 56 57 64 66 62 62 59 55 57 64 69 67 68 78 81 73 66 64 61 59 63 71 77 69 59 58 57 52
3 12 15 13 16 8 16 7 12 10 6 18 43 61 59 64 59 60 63 64 56 54 59 59 69 68 69 65 63 64 67 56 54 65 75 76 73 69 65 63 64 70 80 82 73 65 60 57 55
16 11 8 8 3 6 11 25 17 53 30 39 60 68 62 69 75 55 50 59 67 65 60 55 63 69 73 72 71 70 69 57 66 63 71 76 74 71 68 65 66 78 86 84 76 67 63 58 60
9 6 6 2 8 14 17 33 17 34 32 28 55 68 74 73 60 37 39 47 59 68 67 58 61 69 81 78 69 67 70 72 79 80 71 80 76 74 71 65 72 85 89 87 77 68 67 65 68
20 19 25 10 11 7 16 46 21 20 33 45 58 70 62 63 41 34 38 47 57 65 70 63 61 71 81 76 66 62 73 71 90 88 81 75 81 82 73 67 81 92 90 84 79 76 77 71 71
29 29 5 13 9 10 15 37 16 16 33 45 61 58 42 36 35 36 37 42 50 65 67 60 63 71 75 69 57 60 67 54 80 106 89 75 51 83 74 69 88 98 89 85 82 80 81 79 81
32 15 22 16 5 7 2 14 11 13 16 9 17 33 24 17 22 27 26 35 44 55 54 56 62 70 71 70 63 65 73 80 86 113 99 100 61 91 79 76 89 96 91 86 84 83 81 78 87
16 13 17 19 7 4 8 3 15 4 13 11 16 10 7 8 11 13 19 25 34 45 50 52 57 65 69 60 65 71 84 77 90 86 91 73 85 89 87 85 86 90 91 87 85 86 86 80 83
12 7 8 2 7 9 21 16 10 4 6 13 11 10 13 3 4 10 21 28 36 39 42 45 52 63 63 58 58 55 78 84 82 96 101 76 88 91 90 86 83 86 86 87 86 86 86 82 81
11 14 7 11 9 10 2 8 14 19 27 19 15 34 39 29 8 10 19 25 31 33 36 33 42 52 49 48 39 37 61 82 76 92 96 87 100 96 92 87 85 85 83 84 83 86 87 84 81
17 13 10 14 9 7 6 12 7 12 30 51 61 54 66 60 44 23 18 24 27 30 28 29 34 38 48 36 40 40 44 58 78 86 82 99 103 93 92 87 82 82 82 82 81 82 82 82 78
13 14 11 11 5 6 8 6 7 30 40 44 54 65 65 73 59 42 20 18 21 25 26 31 27 36 37 30 28 41 53 49 56 74 76 88 92 93 86 82 80 82 81 79 77 79 79 78 75
10 8 8 8 13 8 5 3 6 26 32 35 38 47 59 77 75 61 38 24 20 20 25 26 28 35 31 31 31 24 30 47 60 53 57 70 85 85 81 80 81 80 75 74 74 77 77 76 75
9 9 9 4 3 9 8 3 9 13 14 23 26 43 51 61 71 71 61 35 22 22 21 23 25 27 29 34 36 33 23 31 56 66 60 62 67 74 75 75 76 75 74 71 70 73 74 74 73
26 15 15 6 4 4 3 7 21 14 19 34 36 45 48 55 63 66 70 52 38 27 18 20 22 25 24 30 39 41 32 31 37 46 58 65 64 64 65 64 66 71 71 70 68 70 69 71 71
Wind_Direction_500mb
166 158 154 143 73 65 259 253 247 242 192 182 176 198 165 18 125 200 148 185 51 131 177 190 182 188 184 183 184 181 177 177 174 177 177 171 155 161 168 175 173 167 163 158 149 147 149 144 133
173 162 156 126 97 105 256 243 206 198 176 130 130 38 54 3 63 139 155 190 115 133 169 192 186 188 191 188 186 180 178 176 174 177 180 162 165 170 180 187 183 179 171 161 156 153 154 148 140
167 166 159 106 125 188 206 208 182 164 151 162 135 100 126 124 108 174 164 174 148 155 165 193 191 187 185 185 181 179 179 173 170 172 174 170 171 172 181 194 191 186 174 166 158 155 157 154 150
161 159 77 109 210 248 212 187 181 150 152 172 155 101 117 165 157 157 136 142 148 155 153 185 195 191 187 187 185 183 179 174 179 186 185 174 178 179 192 199 198 186 177 170 160 160 159 157 153
164 126 75 189 249 262 243 230 191 183 182 178 173 184 147 130 155 166 182 166 201 174 163 183 197 197 193 191 190 187 182 181 193 197 195 182 180 195 199 204 199 189 179 172 163 162 160 164 153
115 107 87 224 240 250 264 213 171 175 191 195 226 136 187 165 175 192 197 196 185 218 194 192 198 202 201 202 204 193 188 190 201 204 213 204 204 203 204 203 198 193 184 170 163 163 165 168 154
133 108 207 217 245 293 235 183 165 175 173 218 178 140 180 169 167 153 156 161 185 200 209 198 206 206 206 208 208 197 193 197 204 210 213 218 217 216 212 203 199 195 180 171 165 165 170 167 159
164 104 180 232 199 253 207 155 153 166 212 217 198 202 200 183 185 183 211 222 192 206 211 213 214 215 209 209 212 209 200 202 208 210 215 220 223 220 211 208 197 186 186 171 167 169 169 168 163
152 80 225 235 167 232 160 139 173 179 201 204 210 233 194 199 208 245 254 252 256 238 215 222 218 216 217 214 213 214 211 210 210 211 217 221 223 221 207 209 199 186 185 171 168 169 170 168 163
142 159 219 209 195 187 174 175 189 211 202 228 234 235 230 228 242 255 258 260 259 254 235 220 222 217 220 221 220 219 217 216 215 216 217 221 223 218 211 207 204 193 181 172 167 170 170 169 162
181 210 206 232 205 193 203 218 238 197 235 232 241 263 256 253 250 250 252 254 255 258 244 231 226 223 221 221 221 220 221 217 216 219 220 222 225 217 210 205 200 194 178 172 171 172 173 171 163
189 240 207 234 208 217 196 200 236 221 250 251 267 270 270 267 258 251 249 244 243 246 250 239 229 227 224 226 226 223 220 216 215 218 219 222 225 218 211 208 204 191 180 178 176 176 176 172 166
236 252 232 246 258 268 271 241 243 254 266 265 269 267 266 270 264 257 250 243 238 239 240 245 239 231 230 228 229 228 219 205 212 219 217 218 226 222 214 207 203 186 184 180 178 180 180 175 171
243 249 268 272 263 252 230 255 204 262 270 263 265 264 261 262 261 258 249 245 239 241 237 239 239 231 227 233 231 230 223 223 207 214 220 220 220 222 215 208 200 187 184 180 180 181 180 183 174
281 310 310 222 235 230 222 268 227 264 265 265 262 263 264 266 263 255 252 247 242 239 240 238 233 232 224 222 230 229 223 214 218 200 213 221 220 220 216 207 198 187 183 180 180 181 181 179 176
337 139 279 296 163 244 161 260 271 276 250 245 259 268 273 273 268 264 258 246 242 239 236 236 234 230 228 224 225 230 229 232 234 234 215 212 218 215 214 206 195 186 183 181 180 178 174 179 183
286 246 217 322 206 138 186 260 262 281 253 266 284 285 281 279 273 271 259 248 240 240 235 235 231 230 229 227 224 224 226 231 232 232 235 214 211 212 213 207 192 185 183 182 183 187 185 183 184
200 231 244 223 126 190 230 256 278 287 272 275 283 281 279 281 285 290 266 248 241 236 231 229 228 230 226 226 224 223 226 231 222 225 224 225 208 210 208 205 195 187 185 183 184 190 188 186 182
108 225 242 298 301 339 280 275 254 258 265 247 267 275 278 281 290 280 262 234 232 232 223 223 226 227 225 221 223 229 235 237 223 223 231 232 210 210 205 204 194 189 187 190 187 190 191 188 189
254 265 266 257 242 250 295 283 266 252 256 247 255 267 271 281 273 272 263 235 224 222 221 225 229 229 226 226 229 246 259 249 234 214 214 216 218 212 208 204 200 193 190 194 191 192 190 196 193
234 239 234 245 309 269 291 283 260 254 250 245 250 263 267 266 270 277 265 238 221 217 222 226 231 230 224 223 235 261 254 230 215 212 210 209 225 217 209 208 204 197 195 196 194 195 197 191 189
244 190 228 235 226 227 100 291 323 292 297 255 233 262 265 237 261 272 251 228 215 215 221 229 231 233 224 224 244 257 226 217 214 210 205 218 228 216 209 208 204 201 199 199 198 199 203 200 191
228 159 207 223 211 213 208 309 276 322 330 311 298 225 189 241 256 248 231 223 220 222 230 231 230 231 226 236 248 249 215 206 205 204 195 193 209 211 208 209 204 205 203 203 202 202 207 209 205
213 200 92 46 193 261 207 177 277 311 349 342 354 68 55 87 224 236 234 230 231 235 235 229 235 235 235 241 255 256 214 208 203 209 203 197 205 208 208 211 209 210 207 206 206 208 211 213 215
175 165 181 212 191 224 257 111 249 339 352 320 347 21 19 19 12 242 240 244 239 242 237 235 235 229 238 248 268 236 198 203 209 200 201 206 209 205 208 209 210 211 211 210 209 211 214 217 218
187 184 175 180 186 196 156 210 19 13 38 41 42 30 35 28 21 347 275 250 246 245 240 231 239 243 243 243 241 203 174 183 201 207 203 207 203 205 208 208 212 214 214 213 213 215 217 221 224
171 200 187 105 22 89 198 228 35 17 24 24 28 25 16 19 23 20 348 299 264 251 238 231 246 243 239 242 224 198 183 169 185 188 195 198 203 210 209 210 213 215 216 216 217 219 221 224 227
22 360 164 182 166 199 216 301 89 20 10 10 15 13 7 12 22 22 15 347 299 266 251 238 243 241 242 236 215 200 207 190 182 190 202 211 212 212 212 213 214 216 216 218 220 221 224 226 229
12 24 330 295 79 166 152 222 146 76 18 13 1 359 3 8 13 21 21 9 339 290 263 242 240 239 243 233 231 217 211 203 196 196 199 209 215 218 218 218 218 218 217 217 219 222 225 228 231
72 45 29 339 42 21 138 136 140 72 26 10 357 351 355 4 7 11 20 21 16 352 311 261 233 236 239 234 237 234 224 231 216 207 212 209 212 222 223 222 225 224 222 222 221 223 226 229 233
Wind_Speed_850mb
15 20 23 14 8 9 6 12 5 5 4 4 3 2 3 4 3 6 11 3 8 8 18 37 42 40 42 40 41 42 39 38 38 38 34 29 29 28 27 27 23 18 15 17 19 21 23 24 26
19 23 21 7 9 5 10 8 9 9 8 7 5 3 6 0 3 11 7 2 7 8 10 29 44 43 37 41 42 42 40 37 35 31 28 31 29 27 25 26 22 17 17 19 21 23 23 26 29
22 27 8 8 7 10 10 8 12 6 6 6 5 3 4 3 7 5 5 6 12 15 9 25 42 48 42 37 40 39 39 37 32 31 30 31 28 27 25 27 22 18 19 21 23 25 28 32 32
15 10 7 7 11 11 10 8 9 10 4 7 8 1 8 7 7 9 6 7 13 16 11 20 40 48 46 44 40 39 37 37 38 36 32 31 30 27 28 26 22 21 20 21 24 29 34 36 32
18 6 6 1 9 10 10 9 18 11 8 11 10 5 11 9 13 10 7 7 11 13 13 20 35 45 49 47 43 41 39 39 40 35 33 32 30 29 27 24 22 22 23 25 28 34 41 39 32
7 5 5 7 9 10 10 16 20 12 10 7 5 7 8 23 15 14 14 11 16 13 14 22 31 41 47 45 47 44 44 45 44 38 30 28 28 28 26 25 24 24 25 26 33 40 45 39 34
11 8 8 6 7 9 9 15 15 17 13 12 10 8 8 23 21 15 13 13 23 25 22 22 30 42 48 46 46 49 50 49 48 38 31 27 28 27 26 26 26 25 26 30 38 44 46 40 35
9 7 7 10 8 11 5 9 8 15 13 7 15 10 9 28 29 16 9 6 10 20 28 30 32 39 52 51 51 49 55 54 51 43 35 28 28 27 26 28 27 27 28 34 42 48 48 44 38
10 6 7 10 15 9 9 6 8 8 8 21 18 20 10 13 25 24 25 25 23 20 26 38 41 45 53 57 58 55 56 60 55 48 42 35 30 30 29 32 30 29 31 39 47 52 49 46 42
9 8 19 13 10 9 9 6 8 6 12 16 33 36 30 29 34 41 40 38 35 33 31 32 45 51 55 60 61 60 59 62 58 56 50 40 34 33 34 34 34 33 36 46 54 51 49 47 44
16 14 11 11 22 9 7 6 13 14 15 40 46 52 42 43 51 56 55 50 45 39 37 36 41 51 58 61 66 65 67 67 64 63 53 44 39 39 40 41 40 39 45 55 58 55 50 46 41
8 25 14 8 13 8 8 6 11 31 49 31 41 43 50 49 51 52 53 51 50 48 44 39 42 50 58 61 69 73 77 74 76 73 61 53 48 46 46 45 43 42 51 61 62 58 51 43 43
9 6 17 45 41 40 35 29 24 28 73 57 62 58 61 61 57 51 53 56 48 49 49 49 48 48 52 63 65 70 74 84 83 78 70 61 56 52 51 49 45 46 54 61 65 60 54 49 47
7 12 19 24 34 24 14 19 15 39 61 44 50 53 49 48 47 42 47 60 67 63 58 54 51 51 52 52 59 59 72 63 80 86 75 69 63 57 57 53 48 51 57 66 64 59 57 52 46
6 11 13 17 19 16 19 14 20 75 50 48 50 46 41 43 42 46 42 49 53 62 67 66 57 57 58 56 53 60 63 48 67 77 81 73 68 61 61 57 53 56 64 70 65 57 50 55 49
3 2 6 7 10 14 23 16 14 28 28 34 35 37 43 47 46 44 50 48 50 56 57 64 66 62 62 59 55 57 64 69 67 68 78 81 73 66 64 61 59 63 71 77 69 59 58 57 52
3 12 15 13 16 8 16 7 12 10 6 18 43 61 59 64 59 60 63 64 56 54 59 59 69 68 69 65 63 64 67 56 54 65 75 76 73 69 65 63 64 70 80 82 73 65 60 57 55
16 11 8 8 3 6 11 25 17 53 30 39 60 68 62 69 75 55 50 59 67 65 60 55 63 69 73 72 71 70 69 57 66 63 71 76 74 71 68 65 66 78 86 84 76 67 63 58 60
9 6 6 2 8 14 17 33 17 34 32 28 55 68 74 73 60 37 39 47 59 68 67 58 61 69 81 78 69 67 70 72 79 80 71 80 76 74 71 65 72 85 89 87 77 68 67 65 68
20 19 25 10 11 7 16 46 21 20 33 45 58 70 62 63 41 34 38 47 57 65 70 63 61 71 81 76 66 62 73 71 90 88 81 75 81 82 73 67 81 92 90 84 79 76 77 71 71
29 29 5 13 9 10 15 37 16 16 33 45 61 58 42 36 35 36 37 42 50 65 67 60 63 71 75 69 57 60 67 54 80 106 89 75 51 83 74 69 88 98 89 85 82 80 81 79 81
32 15 22 16 5 7 2 14 11 13 16 9 17 33 24 17 22 27 26 35 44 55 54 56 62 70 71 70 63 65 73 80 86 113 99 100 61 91 79 76 89 96 91 86 84 83 81 78 87
16 13 17 19 7 4 8 3 15 4 13 11 16 10 7 8 11 13 19 25 34 45 50 52 57 65 69 60 65 71 84 77 90 86 91 73 85 89 87 85 86 90 91 87 85 86 86 80 83
12 7 8 2 7 9 21 16 10 4 6 13 11 10 13 3 4 10 21 28 36 39 42 45 52 63 63 58 58 55 78 84 82 96 101 76 88 91 90 86 83 86 86 87 86 86 86 82 81
11 14 7 11 9 10 2 8 14 19 27 19 15 34 39 29 8 10 19 25 31 33 36 33 42 52 49 48 39 37 61 82 76 92 96 87 100 96 92 87 85 85 83 84 83 86 87 84 81
17 13 10 14 9 7 6 12 7 12 30 51 61 54 66 60 44 23 18 24 27 30 28 29 34 38 48 36 40 40 44 58 78 86 82 99 103 93 92 87 82 82 82 82 81 82 82 82 78
13 14 11 11 5 6 8 6 7 30 40 44 54 65 65 73 59 42 20 18 21 25 26 31 27 36 37 30 28 41 53 49 56 74 76 88 92 93 86 82 80 82 81 79 77 79 79 78 75
10 8 8 8 13 8 5 3 6 26 32 35 38 47 59 77 75 61 38 24 20 20 25 26 28 35 31 31 31 24 30 47 60 53 57 70 85 85 81 80 81 80 75 74 74 77 77 76 75
9 9 9 4 3 9 8 3 9 13 14 23 26 43 51 61 71 71 61 35 22 22 21 23 25 27 29 34 36 33 23 31 56 66 60 62 67 74 75 75 76 75 74 71 70 73 74 74 73
26 15 15 6 4 4 3 7 21 14 19 34 36 45 48 55 63 66 70 52 38 27 18 20 22 25 24 30 39 41 32 31 37 46 58 65 64 64 65 64 66 71 71 70 68 70 69 71 71
Wind_Direction_850mb
166 158 154 143 73 65 259 253 247 242 192 182 176 198 165 18 125 200 148 185 51 131 177 190 182 188 184 183 184 181 177 177 174 177 177 171 155 161 168 175 173 167 163 158 149 147 149 144 133
173 162 156 126 97 105 256 243 206 198 176 130 130 38 54 3 63 139 155 190 115 133 169 192 186 188 191 188 186 180 178 176 174 177 180 162 165 170 180 187 183 179 171 161 156 153 154 148 140
167 166 159 106 125 188 206 208 182 164 151 162 135 100 126 124 108 174 164 174 148 155 165 193 191 187 185 185 181 179 179 173 170 172 174 170 171 172 181 194 191 186 174 166 158 155 157 154 150
161 159 77 109 210 248 212 187 181 150 152 172 155 101 117 165 157 157 136 142 148 155 153 185 195 191 187 187 185 183 179 174 179 186 185 174 178 179 192 199 198 186 177 170 160 160 159 157 153
164 126 75 189 249 262 243 230 191 183 182 178 173 184 147 130 155 166 182 166 201 174 163 183 197 197 193 191 190 187 182 181 193 197 195 182 180 195 199 204 199 189 179 172 163 162 160 164 153
115 107 87 224 240 250 264 213 171 175 191 195 226 136 187 165 175 192 197 196 185 218 194 192 198 202 201 202 204 193 188 190 201 204 213 204 204 203 204 203 198 193 184 170 163 163 165 168 154
133 108 207 217 245 293 235 183 165 175 173 218 178 140 180 169 167 153 156 161 185 200 209 198 206 206 206 208 208 197 193 197 204 210 213 218 217 216 212 203 199 195 180 171 165 165 170 167 159
164 104 180 232 199 253 207 155 153 166 212 217 198 202 200 183 185 183 211 222 192 206 211 213 214 215 209 209 212 209 200 202 208 210 215 220 223 220 211 208 197 186 186 171 167 169 169 168 163
152 80 225 235 167 232 160 139 173 179 201 204 210 233 194 199 208 245 254 252 256 238 215 222 218 216 217 214 213 214 211 210 210 211 217 221 223 221 207 209 199 186 185 171 168 169 170 168 163
142 159 219 209 195 187 174 175 189 211 202 228 234 235 230 228 242 255 258 260 259 254 235 220 222 217 220 221 220 219 217 216 215 216 217 221 223 218 211 207 204 193 181 172 167 170 170 169 162
181 210 206 232 205 193 203 218 238 197 235 232 241 263 256 253 250 250 252 254 255 258 244 231 226 223 221 221 221 220 221 217 216 219 220 222 225 217 210 205 200 194 178 172 171 172 173 171 163
189 240 207 234 208 217 196 200 236 221 250 251 267 270 270 267 258 251 249 244 243 246 250 239 229 227 224 226 226 223 220 216 215 218 219 222 225 218 211 208 204 191 180 178 176 176 176 172 166
236 252 232 246 258 268 271 241 243 254 266 265 269 267 266 270 264 257 250 243 238 239 240 245 239 231 230 228 229 228 219 205 212 219 217 218 226 222 214 207 203 186 184 180 178 180 180 175 171
243 249 268 272 263 252 230 255 204 262 270 263 265 264 261 262 261 258 249 245 239 241 237 239 239 231 227 233 231 230 223 223 207 214 220 220 220 222 215 208 200 187 184 180 180 181 180 183 174
281 310 310 222 235 230 222 268 227 264 265 265 262 263 264 266 263 255 252 247 242 239 240 238 233 232 224 222 230 229 223 214 218 200 213 221 220 220 216 207 198 187 183 180 180 181 181 179 176
337 139 279 296 163 244 161 260 271 276 250 245 259 268 273 273 268 264 258 246 242 239 236 236 234 230 228 224 225 230 229 232 234 234 215 212 218 215 214 206 195 186 183 181 180 178 174 179 183
286 246 217 322 206 138 186 260 262 281 253 266 284 285 281 279 273 271 259 248 240 240 235 235 231 230 229 227 224 224 226 231 232 232 235 214 211 212 213 207 192 185 183 182 183 187 185 183 184
200 231 244 223 126 190 230 256 278 287 272 275 283 281 279 281 285 290 266 248 241 236 231 229 228 230 226 226 224 223 226 231 222 225 224 225 208 210 208 205 195 187 185 183 184 190 188 186 182
108 225 242 298 301 339 280 275 254 258 265 247 267 275 278 281 290 280 262 234 232 232 223 223 226 227 225 221 223 229 235 237 223 223 231 232 210 210 205 204 194 189 187 190 187 190 191 188 189
254 265 266 257 242 250 295 283 266 252 256 247 255 267 271 281 273 272 263 235 224 222 221 225 229 229 226 226 229 246 259 249 234 214 214 216 218 212 208 204 200 193 190 194 191 192 190 196 193
234 239 234 245 309 269 291 283 260 254 250 245 250 263 267 266 270 277 265 238 221 217 222 226 231 230 224 223 235 261 254 230 215 212 210 209 225 217 209 208 204 197 195 196 194 195 197 191 189
244 190 228 235 226 227 100 291 323 292 297 255 233 262 265 237 261 272 251 228 215 215 221 229 231 233 224 224 244 257 226 217 214 210 205 218 228 216 209 208 204 201 199 199 198 199 203 200 191
228 159 207 223 211 213 208 309 276 322 330 311 298 225 189 241 256 248 231 223 220 222 230 231 230 231 226 236 248 249 215 206 205 204 195 193 209 211 208 209 204 205 203 203 202 202 207 209 205
213 200 92 46 193 261 207 177 277 311 349 342 354 68 55 87 224 236 234 230 231 235 235 229 235 235 235 241 255 256 214 208 203 209 203 197 205 208 208 211 209 210 207 206 206 208 211 213 215
175 165 181 212 191 224 257 111 249 339 352 320 347 21 19 19 12 242 240 244 239 242 237 235 235 229 238 248 268 236 198 203 209 200 201 206 209 205 208 209 210 211 211 210 209 211 214 217 218
187 184 175 180 186 196 156 210 19 13 38 41 42 30 35 28 21 347 275 250 246 245 240 231 239 243 243 243 241 203 174 183 201 207 203 207 203 205 208 208 212 214 214 213 213 215 217 221 224
171 200 187 105 22 89 198 228 35 17 24 24 28 25 16 19 23 20 348 299 264 251 238 231 246 243 239 242 224 198 183 169 185 188 195 198 203 210 209 210 213 215 216 216 217 219 221 224 227
22 360 164 182 166 199 216 301 89 20 10 10 15 13 7 12 22 22 15 347 299 266 251 238 243 241 242 236 215 200 207 190 182 190 202 211 212 212 212 213 214 216 216 218 220 221 224 226 229
12 24 330 295 79 166 152 222 146 76 18 13 1 359 3 8 13 21 21 9 339 290 263 242 240 239 243 233 231 217 211 203 196 196 199 209 215 218 218 218 218 218 217 217 219 222 225 228 231
72 45 29 339 42 21 138 136 140 72 26 10 357 351 355 4 7 11 20 21 16 352 311 261 233 236 239 234 237 234 224 231 216 207 212 209 212 222 223 222 225 224 222 222 221 223 226 229 233